Location: Corralito
(14.1667°N, 87.1833°W)
Time: 21:25:58
(UTC+00:00)

Cosmos 1346 Rocket - Pass Details

Date: 07 June 2020
Orbit: 530 x 548 km, 81.2° (Epoch: 04 July)

Event Time Altitude Azimuth Distance (km) Brightness Sun altitude
Exits shadow 09:58:06 38° 275° (W) 838 3.3 -18.4°
Maximum altitude 09:58:09 38° 277° (W) 837 3.3 -18.4°
Drops below altitude 10° 10:01:53 10° 346° (NNW) 1,804 5.6 -17.7°
Sets 10:04:08 0° 354° (N) 2,694 6.7 -17.2°
